Terminal Aerodrome Forecast
Issued by NWS Midland/Odessa, TX

Home | Current Version | Previous Version | Text Only | Print | Product List | Glossary On
Versions: 1 2 3 4 5 6 7 8 9 10 11 12 13 14 15 16 17 18 19 20 21 22 23 24 25 26 27 28 29
000
FTUS44 KMAF 282300
TAFMAF
TAF
KMAF 282329Z 2900/2924 27015G25KT P6SM SCT050 BKN100
      TEMPO 2900/2902 VRB25G40KT 4SM TSRA BKN030CB
     FM290800 16012KT P6SM OVC020
     FM292100 17010KT P6SM SCT060 SCT250=

USA.gov is the U.S. government's official web portal to all federal, state and local government web resources and services.